Flag Weather past 2 weeks in Almería, Spain

Now
60 °F

Cool.


Feels Like: 60 °F
Forecast: 55 / 66 °F
Wind: 5 mph from North

Location: Almeria / Aeropuerto

Current Time: Nov 29, 2014 at 5:15:19 AM

Latest Report: Nov 29, 2014 at 4:00 AM


Visibility: N/A

Pressure: 29.21 "Hg

Humidity: 78%

Dew point: 53 °F

Location of AlmeríaLocation

Historic Weather in Almería — Graph

°F

Almería temperature yesterday

Maximum temperature yesterday: 67 °F (at 4:00 PM)
Minimum temperature yesterday: 58 °F (at 10:00 AM)
Average temperature yesterday: 62 °F

Past Weeks' High & Low Weather Summary

 TemperatureHumidityPressure
High78 °F (Nov 23, 12:00 PM)94% (Nov 15, 1:00 AM)30.07 "Hg (Nov 15, 1:00 AM)
Low51 °F (Nov 17, 6:00 AM)37% (Nov 22, 3:00 PM)29.12 "Hg (Nov 28, 2:00 PM)
Average64 °F70%29.86 "Hg
* Reported Nov 14 3:00 AM — Nov 29 3:00 AM, Almería, Weather by CustomWeather, © 2014

Note: Actual official high and low records may vary slightly from our data, if they occured in-between our weather recording intervals... More about our weather records

Advertising

Almería weather history for previous 24 hours

 ConditionsComfort  
Time TempWeatherWind HumidityBarometerVisibility
3:00 AM
Nov 29
60 °FCool.8 mph78%29.21 "HgN/A
2:00 AM61 °FCool.9 mph80%29.21 "HgN/A
1:00 AM62 °FCool.7 mph80%29.21 "HgN/A
12:00 AM62 °FCool.8 mph78%29.21 "HgN/A
11:00 PM
Nov 28
62 °FCool.5 mph79%29.21 "HgN/A
10:00 PM62 °FOvercast.5 mph80%29.21 "Hg19 mi
9:00 PM62 °FCool.2 mph82%29.21 "HgN/A
8:00 PM63 °FMild.5 mph80%29.21 "HgN/A
7:00 PM64 °FOvercast.5 mph76%29.18 "Hg19 mi
6:00 PM64 °FMild.1 mph73%29.15 "HgN/A
5:00 PM66 °FMild.5 mph70%29.15 "HgN/A
4:00 PM67 °FMild.2 mph67%29.15 "HgN/A
3:00 PM67 °FMild.2 mph66%29.12 "HgN/A
2:00 PM67 °FMild.8 mph71%29.12 "HgN/A
1:00 PM63 °FOvercast.8 mph75%29.15 "Hg19 mi
12:00 PM61 °FCool.9 mph78%29.18 "HgN/A
11:00 AM60 °FFog.7 mph85%29.21 "HgN/A
10:00 AM58 °FLight rain. Overcast.6 mph89%29.21 "Hg12 mi
9:00 AM59 °FFog.3 mph84%29.21 "HgN/A
8:00 AM59 °FFog.2 mph88%29.21 "HgN/A
7:00 AM60 °FLight rain. Overcast.5 mph87%29.23 "Hg12 mi
6:00 AM60 °FFog.2 mph83%29.23 "HgN/A
5:00 AM60 °FFog.6 mph79%29.26 "HgN/A
Weather by CustomWeather, © 2014

See weather overviewHow to use our weather pages